Weather Roundup
Issued by NWS Springfield, MO

Home | Current Version | Previous Version | Text Only | Print | Product List | Glossary On
Versions: 1 2 3 4 5 6 7 8 9 10 11 12 13 14 15 16 17 18 19 20 21 22 23 24 25 26 27 28 29 30 31 32 33 34 35 36 37 38 39 40 41 42 43 44 45 46 47 48 49 50
000
NZUS99 KSGF 090807
HRRSGF

HOURLY WEATHER
NATIONAL WEATHER SERVICE SPRINGFIELD MO
200 AM CST FRI DEC 09 2016

......SGF CWA......

CITY           SKY/WX    TMP DP  RH WIND       PRES   REMARKS
SPRINGFIELD    CLEAR     14   9  80 NW6       30.60S WCI   5
JOPLIN         CLEAR     13  10  88 CALM      30.65F
WEST PLAINS    CLEAR     17  10  74 NW3       30.59S
ROLLA          CLEAR     15  10  80 W7        30.57R WCI   5
OSAGE BEACH    CLEAR     17  10  74 CALM      30.63R
BRANSON        CLEAR     16  10  79 CALM      30.62R

......SURROUNDING SGF CWA......

CITY           SKY/WX    TMP DP  RH WIND       PRES   REMARKS
CHANUTE        CLEAR     15  10  80 NW5       30.66R WCI   8
PARSONS        CLEAR     12   9  87 CALM      30.67S
COFFEYVILLE    CLEAR     15  11  83 CALM      30.69R
EMPORIA        CLEAR     13   9  84 W3        30.64S
GROVE OK       CLEAR     18  16  93 CALM      30.68R
ROGERS AR      CLEAR     17  12  80 CALM      30.62S
SILOAM SPRINGS CLOUDY    18  10  73 CALM      30.63R
HARRISON AR    CLEAR     16  13  88 NW5       30.60S WCI   9
NEAR YELLVILLE CLEAR     21  10  63 CALM      30.61R

......KANSAS AND MISSOURI......

CITY           SKY/WX    TMP DP  RH WIND       PRES   REMARKS
KANSAS CTY INT PTCLDY    14   7  73 NW6       30.63F WCI   5
DOWNTOWN KC    CLEAR     18  10  71 NW6       30.66S WCI  10
COLUMBIA       CLEAR     17  10  74 NW8       30.60S WCI   7
SEDALIA        CLEAR     16   9  74 NW7       30.64R WCI   6
ST JOSEPH      CLEAR     14   8  77 CALM      30.67R
ST LOUIS       CLEAR     20  11  68 W8        30.59S WCI  10
SPIRIT OF STL  CLEAR     19  12  74 W6        30.61R WCI  11
KIRKSVILLE     CLEAR     14   8  77 W6        30.59R WCI   5
WICHITA        CLOUDY    13   9  84 CALM      30.63F
TOPEKA         CLEAR     14   8  77 W3        30.67S
OLATHE         CLEAR     15   8  73 NW5       30.63F WCI   8

......TENNESSEE......

CITY           SKY/WX    TMP DP  RH WIND       PRES   REMARKS
MEMPHIS        CLEAR     26  17  68 N6        30.60R WCI  19
NASHVILLE      PTCLDY    25  14  63 NW8       30.54R WCI  16

......ARKANSAS.......

CITY           SKY/WX    TMP DP  RH WIND       PRES   REMARKS
FAYETTEVILLE   CLEAR     13  10  88 CALM      30.62S
FT SMITH       PTCLDY    24  13  62 NW5       30.67S WCI  18
LITTLE ROCK    CLEAR     25  15  66 N10       30.66R WCI  15

......OKLAHOMA.......

CITY           SKY/WX    TMP DP  RH WIND       PRES   REMARKS
TULSA          CLEAR     18  12  77 NW6       30.69R WCI  10
PONCA CITY     CLOUDY    13   8  81 CALM      30.67S
MCALESTER      PTCLDY    24  13  62 N5        30.66F WCI  18
OKLAHOMA CITY  CLOUDY    25   7  46 N6        30.65S WCI  18

......IOWA............

CITY           SKY/WX    TMP DP  RH WIND       PRES   REMARKS
DES MOINES     CLEAR     14   7  73 NW10      30.60R WCI   1
QUAD CITIES    CLOUDY    22  11  62 W10       30.53R WCI  11

......ILLINOIS........

CITY           SKY/WX    TMP DP  RH WIND       PRES   REMARKS
QUINCY         CLEAR     16  11  80 W6        30.57R WCI   7
CHICAGO        CLEAR     21  15  78 W12       30.43R WCI   9



USA.gov is the U.S. government's official web portal to all federal, state and local government web resources and services.